This is the latest recevied weather packets stored in our database for station/object AA8FM-13. If no packets are shown the sender has not sent any weather packets the latest 10 day(s).
| Time | Temp. | Humidity | Pressure | Rain* | Wind** | Luminosity | Snow |
|---|---|---|---|---|---|---|---|
| 1777563767 | 12.22° C | 67% | 1010.1 hPa | 0 mm | - | 673 W/m² | - |
| 1777563464 | 11.67° C | 68% | 1010.1 hPa | 0 mm | - | 759 W/m² | - |
| 1777563163 | 11.67° C | 72% | 1010.2 hPa | 0 mm | - | 692 W/m² | - |
| 1777562859 | 11.67° C | 66% | 1010.3 hPa | 0 mm | - | 422 W/m² | - |
| 1777562557 | 12.22° C | 68% | 1010.3 hPa | 0 mm | - | 209 W/m² | - |
| 1777562254 | 11.67° C | 72% | 1010 hPa | 0 mm | - | 778 W/m² | - |
| 1777561952 | 11.67° C | 75% | 1010.3 hPa | 0 mm | - | 284 W/m² | - |
| 1777561649 | 10° C | 77% | 1010.3 hPa | 0 mm | - | 696 W/m² | - |
| 1777561345 | 10° C | 74% | 1010.2 hPa | 0 mm | - | 112 W/m² | - |
| 1777561040 | 10.56° C | 76% | 1010.2 hPa | 0 mm | - | 67 W/m² | - |
| 1777560736 | 10.56° C | 74% | 1010 hPa | 0 mm | - | 53 W/m² | - |
| 1777560432 | 10.56° C | 71% | 1010.2 hPa | 0 mm | - | 75 W/m² | - |
| 1777560131 | 11.11° C | 71% | 1009.7 hPa | 0 mm | - | 138 W/m² | - |
| 1777559827 | 11.67° C | 72% | 1009.7 hPa | 0 mm | - | 458 W/m² | - |
| 1777559523 | 11.11° C | 72% | 1009.6 hPa | 0 mm | - | 168 W/m² | - |
| 1777559220 | 11.67° C | 70% | 1009.7 hPa | 0 mm | - | 126 W/m² | - |
| 1777558915 | 11.11° C | 71% | 1009.6 hPa | 0 mm | - | 550 W/m² | - |
| 1777558611 | 11.67° C | 69% | 1009.5 hPa | 0 mm | - | 507 W/m² | - |
| 1777558307 | 11.11° C | 75% | 1009.5 hPa | 0 mm | - | 483 W/m² | - |
| 1777558004 | 10.56° C | 76% | 1009.5 hPa | 0 mm | - | 482 W/m² | - |
| 1777557700 | 11.67° C | 76% | 1009.4 hPa | 0 mm | - | 518 W/m² | - |
| 1777557397 | 11.67° C | 74% | 1009.2 hPa | 0 mm | - | 483 W/m² | - |
| 1777557093 | 11.11° C | 79% | 1009.2 hPa | 0 mm | - | 431 W/m² | - |
| 1777556788 | 10° C | 79% | 1009.3 hPa | 0 mm | - | 394 W/m² | - |
| 1777556486 | 10° C | 83% | 1009.4 hPa | 0 mm | - | 83 W/m² | - |
* Rain latest hour (hover to see other rain measurements)
** Current wind speed in m/s (hover to see current wind gust speed)